sat.trackr.live / text

‹ back to catalog

STARLINK-35348

NORAD 65904 · 2025-224Y

PAYLOAD ACTIVE UNKNOWN

§ Identity

Operator
Country
US
Launch date
2025-10-07
Launch site
AFETR
Launch vehicle
Mass (kg)
RCS (m²)

Purposes: comms

External: N2YO · Heavens-Above · Gunter

§ Orbital elements

Epoch: 2026-09-20T03:48:31.061376Z

Period
93.85 min
Inclination
53.1591°
Eccentricity
0.0001840
Mean motion
15.34415064 rev/d
Perigee alt
461.4 km
Apogee alt
463.9 km
Semi-major
6,840.8 km
B*
6.4077e-4
RAAN
183.4243°
Arg perigee
212.5047°
Mean anomaly
147.5843°
Rev number
5,466

§ Raw data

STARLINK-353481 65904U 25224Y   26263.15869284  .00021345  00000+0  64077-3 0  99922 65904  53.1591 183.4243 0001840 212.5047 147.5843 15.34415064 54665

JSON: /api/v1/satellites/65904 · /tle

For live sub-satellite position, see the globe view (requires WebGL).

§ Visibility from observer

Set your observer location to see the next 7 days of passes ≥ 10°. The values pass through the URL so the page stays shareable.

No JS? Fill the form by hand. The geolocation button needs JavaScript.